FENGYUN 1C DEB, 31837

Orbit data source: Space-Track

FENGYUN 1C DEB, 31837 is space debris in SSO originally from a launch on Mon, 10 May 1999 UTC launched from the Taiyaun Space Center, China (TSC). Fengyun 1C debris stems from the Chinese weather satellite Fengyun-1C, which was intentionally destroyed by a Chinese anti-satellite missile in 2007. This event dramatically increased the amount of space debris, with thousands of trackable fragments posing hazards to satellites and human spaceflight. The Fengyun 1C debris cloud has become a focal point in discussions about space sustainability and the need for international regulations to prevent the creation of new debris.

Loading next visibility...
Identifier
31837, 1999-025CJB
Orbit
SSO
Country
Flag of CNCN / PRC
Related business
Manufacturer
Unknown
Mission
Spacecraft
Bus & Motor
Unknown
Mass
Unknown
Launch date (UTC)
1999-05-10 (27 years ago)
Launch vehicle
Unknown
Launch site
Taiyaun Space Center, China (TSC)
Object type
Payload
Rocket body
Debris
Shape & HBR
Unknown shape, 0.1 m
Radar Cross Section
Small (<0.1 m²)

Expand to show TLE details & history
Last TLE update: 2 weeks ago

TLE from 2 weeks ago
0 FENGYUN 1C DEB
1 31837U 99025CJB 26144.96699688  .00008471  00000-0  91903-3 0  9990
2 31837  98.0840 227.8094 0088097 205.6089 154.0749 14.85577867  7732
Epoch: 2026-05-24T23:12Z
TLE epoch observation values (Epoch: 2026-05-24T23:12:28.530Z)
Latitude
-0.00009°
Longitude
-2.87101°
Altitude
670.293 km
Speed
7.492 km/s
True Right ascension
15h 11m 14s
True Declination
0° 00' 00"
Sunlit
Object was in full shadow at epoch
Visualization orbit readout
Latitude
Unknown
Longitude
Unknown
Altitude
Unknown
Speed
Unknown
Apparent Right ascension
Unknown
Apparent Declination
Unknown
Sunlit
N/A
Visualization observer readout
Local Sidereal Time
09:43:12
Azimuth
Unknown
Elevation
Unknown
Doppler factor
Unknown
Orbital elements
Apogee altitude
670.367 km
Perigee altitude
547.261 km
Semi-major axis
6,986.951 km
Eccentricity
0.00881
Inclination
98.084°
RAAN
227.8094°
Arg. of periapsis
205.6089°
True anomaly
154.51192°
Mean anomaly
154.0749°
Eccentric anomaly
154.29384°
Mean motion
3.71631 °/min
Orbital period
96.87 mins
BSTAR
0.00091903
Loading maneuver chart data...
Computing Atmospheric mass density...
Loading historical data...
Loading historical data...
Loading historical data...
Loading historical data...
Loading historical data...
Loading historical data...
Loading historical data...

Documentation

Showing up to 5 results
|